Theta_e
292 292 291 291 291 291 290 290 289 289 289 289 289 289 289 289 289 288 287 288 287 286 285 284 284 285 284 284 285 285 284 284 281 283 286 290 290 293 295 298 297 296 296
292 292 291 291 290 289 289 289 289 288 289 289 289 289 289 289 288 287 285 286 285 284 284 284 284 284 283 284 284 284 284 285 284 282 284 287 288 291 292 290 294 297 295
291 291 290 290 289 288 288 289 289 288 288 288 289 288 288 287 286 285 285 285 285 285 283 282 282 282 281 282 282 283 285 286 285 284 282 286 289 291 289 290 290 290 295
290 289 288 288 289 288 288 288 288 288 287 287 287 287 286 285 284 284 285 285 285 283 282 283 283 283 282 281 281 283 283 285 285 283 282 285 286 288 289 287 286 286 285
288 288 288 289 289 288 287 287 287 287 287 287 286 285 284 284 284 284 285 285 283 281 282 282 283 284 283 283 282 281 283 284 283 282 283 285 285 285 286 286 285 285 285
288 287 288 288 287 286 286 286 286 286 286 285 283 282 282 283 286 287 287 284 281 281 280 281 284 282 282 283 284 285 285 285 283 283 284 284 285 286 285 285 284 284 282
286 287 287 287 286 285 286 285 284 284 284 281 279 277 277 279 286 287 287 281 280 280 280 280 282 284 281 281 283 285 286 287 288 286 283 285 285 286 285 283 282 282 281
286 285 285 285 283 283 281 281 279 280 279 277 277 275 275 277 286 287 286 280 279 278 279 279 281 284 283 283 284 282 283 285 285 286 286 286 286 285 285 284 282 282 282
284 285 284 283 282 281 281 282 284 282 276 273 275 275 274 276 285 287 285 281 278 276 278 279 281 285 287 287 284 284 285 285 287 292 292 291 289 288 286 284 281 279 277
284 285 283 283 282 280 280 284 284 282 280 276 277 274 276 275 284 286 285 281 277 276 276 276 281 283 287 289 284 284 283 283 283 283 284 285 286 286 287 284 282 278 276
283 282 282 282 282 281 282 284 283 282 275 272 275 275 275 273 275 286 286 281 279 275 277 277 278 282 284 284 286 285 284 284 283 282 280 280 280 280 279 280 281 280 277
282 281 281 281 282 283 284 284 283 282 273 273 273 275 275 274 281 284 285 284 282 273 275 278 279 281 282 283 281 283 283 280 279 277 277 276 276 275 275 276 277 277 277
280 279 278 279 281 282 283 282 282 282 277 274 274 273 275 275 273 283 283 283 281 273 278 279 280 280 279 278 281 280 277 275 274 273 273 273 273 274 276 276 276 275 275
281 278 277 279 279 283 283 283 283 282 278 278 275 274 274 274 273 274 276 275 278 276 277 273 278 277 278 277 275 275 275 275 275 274 274 275 276 275 274 275 273 273 271
280 280 280 280 280 282 283 283 283 284 282 278 277 275 273 272 275 281 280 276 273 277 271 269 273 273 272 272 272 273 273 273 273 273 273 274 274 274 273 273 272 271 269
281 280 280 280 280 283 282 282 286 285 286 286 285 281 279 283 283 282 281 281 282 281 267 266 271 271 271 271 270 269 271 272 272 273 273 273 272 271 270 270 270 269 267
282 282 281 280 281 281 282 282 281 284 286 285 285 285 285 283 282 282 281 281 280 276 264 265 266 269 270 270 270 270 269 270 272 272 272 272 272 271 270 269 269 269 267
281 280 281 281 281 281 281 281 280 280 280 280 284 284 284 284 281 281 281 280 267 269 263 262 262 264 265 267 268 268 269 270 270 271 271 271 271 271 270 269 269 268 268
279 281 281 280 281 280 281 280 280 280 279 273 273 282 282 283 281 279 282 270 266 264 263 262 262 262 262 262 264 266 266 266 268 268 269 270 270 270 269 268 268 267 266
277 276 278 280 279 280 280 280 280 280 281 280 280 280 276 276 273 270 268 268 267 265 264 262 261 260 260 261 260 261 263 265 267 267 267 268 267 268 267 266 266 263 262
278 277 279 278 280 280 281 281 281 281 281 281 282 283 281 278 276 274 270 270 270 268 267 265 263 262 262 260 260 261 259 261 261 265 266 266 267 265 265 264 263 262 262
277 277 278 280 280 279 281 281 281 281 281 281 282 284 286 280 278 276 272 271 271 270 270 269 267 265 265 265 264 263 262 261 260 261 262 263 264 264 264 262 262 261 261
276 276 277 279 280 281 283 283 283 283 281 281 282 283 283 282 279 276 274 272 270 268 267 268 267 265 262 264 265 265 264 263 261 262 263 263 262 262 262 261 261 261 261
275 274 278 282 283 283 283 282 282 283 282 282 282 283 282 282 279 277 274 272 270 267 266 266 265 265 263 261 262 263 263 262 263 262 262 263 261 260 260 260 259 258 259
279 280 281 282 283 283 283 283 282 282 282 282 282 282 281 280 279 278 275 272 270 268 266 265 264 264 264 264 263 262 265 265 264 263 263 262 261 260 260 260 259 256 257
275 279 280 282 283 283 283 282 282 282 282 283 282 282 280 280 280 278 275 272 270 269 267 266 265 265 265 264 263 263 264 266 264 263 264 263 262 260 260 259 258 258 256
Wind_Speed
8 7 7 6 5 4 4 5 4 3 4 4 6 6 8 9 9 9 11 14 16 17 16 17 19 17 13 11 12 12 12 12 14 8 9 16 15 15 4 4 3 3 4
7 7 7 6 6 5 5 5 4 4 5 5 6 6 8 9 10 11 12 14 17 19 17 17 19 14 16 14 11 12 11 13 11 11 10 12 9 10 8 3 2 2 4
8 8 7 6 6 6 5 3 3 5 5 5 6 6 8 10 10 11 12 15 16 15 19 18 20 19 16 11 11 11 8 10 9 5 11 11 10 5 3 1 2 2 2
8 8 7 7 7 6 5 4 5 4 5 6 5 6 8 10 10 9 14 15 15 15 16 18 18 19 17 10 9 10 10 9 6 5 8 10 4 4 4 2 1 2 2
8 8 8 7 6 5 5 5 4 4 5 6 6 6 6 8 7 12 14 15 16 16 16 17 17 15 19 10 7 9 12 5 2 6 10 2 3 2 2 1 2 2 3
9 8 7 7 6 6 5 5 3 4 5 5 6 6 8 6 15 20 20 14 14 14 16 17 16 11 8 10 12 16 12 3 6 4 5 6 4 2 1 1 2 1 1
8 8 7 7 7 6 5 3 3 4 4 5 6 4 6 7 15 20 22 10 11 13 14 15 15 9 8 4 8 11 7 7 11 8 8 6 2 3 3 3 5 5 4
9 8 7 7 6 6 5 4 3 2 4 4 6 5 5 6 15 19 21 9 10 12 14 15 17 10 9 5 5 6 6 6 7 7 6 2 2 5 7 9 11 11 10
8 9 8 8 7 5 5 4 5 4 4 3 4 5 4 6 14 18 15 9 9 9 11 14 17 14 11 6 3 3 5 5 9 12 5 4 14 21 17 11 8 13 10
10 10 9 9 8 8 5 7 6 5 5 2 6 5 6 6 10 16 14 6 8 8 8 10 20 18 22 14 3 3 5 6 6 9 9 13 14 12 12 8 5 12 12
8 8 9 9 9 8 7 7 6 6 3 3 5 6 5 4 5 14 15 5 5 6 7 8 7 21 19 20 17 7 6 5 9 9 9 9 10 11 10 10 8 4 4
7 7 8 8 7 7 8 7 7 6 3 4 3 5 4 5 4 10 14 12 11 2 6 6 7 16 17 17 12 16 17 12 7 8 8 8 8 9 10 11 14 15 13
7 7 6 6 6 7 8 9 7 7 4 3 3 3 3 4 2 9 12 12 11 3 4 10 14 17 15 12 18 17 12 7 8 8 8 8 8 7 10 12 14 16 17
9 8 7 8 7 7 6 7 7 6 4 4 3 4 3 3 2 2 2 4 5 5 7 5 10 12 15 12 9 10 7 6 7 7 8 6 5 6 8 6 9 10 12
8 8 8 8 10 9 10 9 8 7 6 4 4 3 2 3 2 4 5 3 2 3 3 3 6 6 7 7 7 7 7 7 8 6 7 7 7 7 7 6 7 10 10
8 7 8 7 7 8 8 7 15 12 13 10 8 6 2 7 4 3 4 5 6 7 4 3 5 5 6 6 6 5 6 7 6 6 7 7 7 7 8 8 9 9 10
10 8 7 8 8 9 9 9 9 10 14 13 13 11 11 7 5 1 4 3 7 6 3 3 2 4 4 4 5 5 5 5 5 6 6 6 7 7 9 8 8 9 9
9 9 8 8 8 9 9 8 7 8 10 8 16 13 13 10 4 2 5 5 3 4 2 1 2 2 2 3 3 3 4 5 5 5 6 6 6 7 8 8 8 9 8
7 7 7 6 7 8 7 8 7 7 7 4 2 10 11 12 7 4 4 3 4 2 1 0 2 3 2 2 2 3 5 4 4 5 5 5 5 6 8 8 9 11 11
6 7 6 6 6 8 7 8 8 8 8 7 7 7 6 4 4 4 2 3 4 4 4 3 2 3 3 4 3 2 2 4 6 6 6 6 6 6 8 8 8 9 7
5 5 8 5 7 8 8 9 8 9 9 9 9 8 15 9 7 6 5 5 5 5 5 4 4 3 4 4 3 4 3 3 3 4 6 7 7 7 7 8 8 8 9
5 5 6 8 7 6 8 8 8 9 9 9 8 8 20 7 6 6 5 6 5 5 5 5 4 4 4 5 5 5 5 5 4 4 4 5 6 7 8 8 9 8 8
5 5 5 6 7 8 9 9 10 11 9 9 8 8 10 8 8 7 7 6 6 5 5 6 5 4 3 4 5 6 8 6 5 5 8 7 7 6 7 8 8 8 7
6 4 7 8 8 8 9 9 12 14 11 10 9 9 9 9 8 9 7 6 7 5 5 5 5 6 4 3 4 5 5 5 5 5 8 8 8 7 6 7 5 6 7
4 6 10 10 8 8 9 10 10 10 10 11 10 10 9 9 8 9 8 8 7 7 7 6 5 8 8 9 7 8 9 11 8 8 7 8 10 10 8 7 8 5 6
7 8 8 8 8 8 9 10 10 10 10 11 10 10 10 10 9 9 9 9 8 7 8 6 7 10 10 8 9 10 10 13 10 10 8 9 9 7 7 9 10 7 7
Wind_Direction
167 168 171 177 185 192 215 238 243 258 273 278 276 284 287 293 292 294 294 302 304 301 295 290 285 276 269 267 264 258 258 260 271 270 266 274 264 287 230 226 223 256 275
167 168 174 177 180 199 224 232 245 261 272 272 274 281 289 296 300 302 301 303 307 304 299 302 296 290 284 276 272 262 259 257 258 268 273 277 247 260 265 191 193 255 276
165 164 170 182 188 206 216 226 252 263 275 280 285 288 299 301 307 308 305 311 308 305 313 305 297 291 278 271 273 270 268 259 247 234 271 263 264 239 255 356 303 342 289
160 164 177 188 188 191 197 209 238 255 274 283 288 295 301 306 309 313 311 313 318 318 309 303 300 296 285 263 273 275 283 251 246 251 263 261 261 221 214 176 160 53 334
156 171 188 177 168 180 191 219 234 250 271 285 302 302 303 307 314 329 321 327 328 318 316 313 307 317 316 269 278 283 292 261 264 255 262 205 211 224 190 179 97 158 63
168 182 174 158 171 186 198 218 225 259 281 300 308 302 306 311 322 338 337 334 332 325 320 319 315 316 292 308 306 277 275 297 284 312 298 241 199 182 129 97 124 174 60
170 175 170 163 179 185 191 204 229 257 296 298 289 286 293 290 330 344 341 343 332 328 323 323 326 333 307 340 335 321 288 280 279 275 267 260 163 177 113 79 82 91 83
177 173 166 169 178 179 174 193 232 225 273 276 286 290 292 295 337 346 347 345 341 329 330 330 330 336 338 28 15 341 298 282 291 285 245 247 110 92 98 118 112 98 70
181 179 175 166 169 173 186 202 221 239 258 267 267 288 286 294 335 348 352 351 339 331 331 335 346 354 334 10 49 346 326 337 349 35 14 148 134 130 129 122 119 107 89
188 184 168 163 170 174 174 215 223 234 257 245 285 262 270 283 333 351 353 358 344 337 333 334 352 2 15 18 14 345 28 17 23 50 49 57 67 75 69 79 110 122 123
159 157 164 169 173 168 172 208 217 239 266 284 276 287 281 274 329 356 349 12 357 338 339 341 349 1 18 28 29 51 80 70 54 59 55 54 55 54 56 58 61 52 70
151 164 171 174 174 168 189 207 214 221 242 263 275 295 290 289 21 359 349 16 7 351 335 335 351 6 21 39 44 50 66 60 55 52 54 45 52 59 62 67 67 68 62
152 173 171 163 175 174 189 205 215 221 186 245 239 264 280 292 40 9 345 8 17 21 340 0 11 19 23 25 46 57 50 53 72 71 65 61 65 78 88 85 78 75 63
171 168 169 176 177 188 199 210 206 206 204 187 225 253 278 299 345 9 348 322 1 9 8 350 22 34 29 34 38 33 40 55 73 79 82 79 64 61 62 67 88 86 76
176 178 182 189 186 197 209 207 210 213 191 172 204 207 216 289 272 20 4 318 347 25 9 359 29 17 20 14 30 37 29 41 61 68 79 82 78 75 59 49 56 71 86
180 187 189 186 189 203 208 217 222 219 208 198 196 204 258 259 294 38 32 357 29 41 24 20 43 34 25 13 17 26 33 51 46 66 70 73 79 81 78 70 74 77 90
200 196 185 187 191 195 203 203 205 217 220 213 205 214 235 252 293 307 144 66 47 59 56 31 26 61 48 32 35 27 45 25 54 67 78 79 85 90 96 94 93 93 90
204 197 192 192 194 197 198 198 191 187 200 210 223 212 222 229 230 250 179 110 29 24 55 132 97 38 44 91 60 63 44 40 49 56 69 84 92 100 103 102 102 106 100
205 212 201 185 196 197 193 195 196 194 192 182 133 209 202 210 205 209 140 152 153 154 190 273 144 123 93 28 66 100 110 98 79 68 60 66 76 100 100 97 95 98 100
214 202 186 193 192 196 197 194 196 202 198 192 193 199 148 124 185 198 173 154 146 153 158 171 198 137 126 128 120 79 64 104 116 114 107 98 91 96 102 104 102 102 90
219 211 200 188 197 199 202 209 202 201 203 202 209 190 176 179 193 185 176 167 171 168 161 170 168 166 145 140 124 113 91 67 49 108 117 119 118 109 104 108 108 108 113
220 213 197 204 202 200 205 207 204 204 203 203 201 190 189 182 186 188 181 176 174 176 159 159 167 171 168 153 149 138 136 134 125 106 93 97 108 114 118 117 116 118 121
220 210 208 204 203 207 217 218 220 216 205 200 192 186 188 189 190 187 187 178 163 162 159 153 158 163 170 149 149 152 152 157 152 138 128 122 119 116 121 124 129 127 129
208 205 228 228 217 213 218 215 223 221 211 200 192 188 190 189 187 185 181 173 161 167 167 156 157 157 148 128 121 126 123 127 127 124 122 123 117 109 107 108 106 112 117
237 246 246 240 230 221 217 223 219 216 212 202 195 192 184 185 182 180 175 171 166 166 178 157 149 156 159 147 136 136 141 134 134 130 122 122 128 128 127 125 126 112 115
285 272 251 235 223 225 222 216 219 215 217 215 198 193 184 186 183 175 173 168 168 167 167 161 155 158 162 157 147 140 140 142 140 133 130 133 132 127 125 129 129 128 125